Погода в Славгороде

Погода в Славгороде : погода сейчас, прогноз погоды и архив. Всё, что Вы хотите узнать о погоде в Славгороде!

Хотите узнать прогноз погоды в Славгороде? Тогда Вам сюда: Погода в Славгороде

Поиск расширенной информации на нашем сайте:

Полезная информация: Самая подробная информация статусы про сук у нас на сайте.

Другие новости

Новости СМИ2

Главная страница сайта

Новости сайта

02.10.2013

Напоминаем, что на нашем новом сайте вы можете получить высокодетализированные прогнозы погоды по пунктам России, СНГ и мира (включающие важные для авиации метеовеличины, такие как направление и скорость ветра, видимость, явления погоды, количество и форма облачности, нижняя и верхняя граница облачности), а также ознакомиться с разнообразными материалами по авиационной метеорологии и подборкой полезных ссылок на эту тему.

Сайт Метеоцентр.Азия посвящён разработке технологий оптимизации авиаметеорологического обслуживания, включая проектирование и перспективное создание нескольких автоматизированных авиаметеорологических систем:
- система выпуска высокодетальных прогностических карт явлений погоды для нижнего воздушного пространства по России и ближнему зарубежью;
- система верификации прогнозов TAF (выпускаемых синоптиками официальных АМСГ РФ и ближнего зарубежья) и AUTOTAF (выпускаемых сайтом Метеоцентр.Азия) - выявление ошибок, онлайн-сопоставление с фактической погодой METAR, автоматическое внесение коррективов в прогнозы при резком отклонении фактической погоды от прогноза, подсчёт оправдываемости прогнозов по элементам и в целом;
- система обработки, анализа и отображения авиаметеорологической информации для применения провайдерами метеорологической информации.

Рекомендуем: гаджет погоды

Погода в Славгороде - сегодня

Время (UTC), дата Ветер
(°,м/с) 
Видим.   Явления Облачность Т
(°С)
Тd
(°С)
f(%) Тe
(°С)
Pmin
(гПа)
dP
(гПа)
Po
(мм)
O2
(г/м3)
Тmin Tmax R s Состояние
почвы
06 25.05.17 210 (ЮЗ) 4000 м  слаб. ливневой дождь  10/10 570 м кучево-дожд. 
[Cb cap]
+13.7 +12.8 94 +19  1012.3  0.5  744  283  +12.2       
12 25.05.17 190 (Ю) 10 км  {ливн. осадки}  9/8 600 м средняя 
[Sc|Ac und]
+17 +13.6 80 +24  1012.9  0.1  745  280           
15 25.05.17 150 (ЮВ) 10 км  слаб. ливневой дождь  10/10 480 м кучево-дожд. 
[Cb cap]
+14.4 +12.4 88 +21  1013.3  0.2  745  283      0.9     
18 25.05.17 200 (Ю) 10 км  {ливн. осадки}  9/5 600 м средняя 
[Sc|Ac und]
+14.4 +12.7 90 +21  1012.9  -0.4  745  283    +18.4     
21 25.05.17 220 (ЮЗ) 4000 м  дымка  4/4 600 м 
[Sc]
+12.9 +12 94 +17  1013  745  284           
00 26.05.17 тихо ()   0500 м  туман  ясно 
+12.1 +12.1 100 +16  1012.7  -0.3  744  285           
03 26.05.17 тихо ()   0200 м  туман  ?/?  
+11.9 +11.9 100 +16  1012.4  -0.3  744  285           
06 26.05.17 тихо ()   10 км  в посл. час туман  8/0 верхняя 
[Ci sp]
+12.9 +11.4 91 +16  1012.7  0.3  744  284  +11.5         
09 26.05.17 240 (ЮЗ) 10 км    9/8 1000 м верхняя 
[Cu med, cong|Ci fib]
+19.5 +8.6 49 +20  1012.2  -0.1  744  278           
21 26.05.17 300 (СЗ) 10 км    8/0 средняя 
[Ac und]
+11.3 +9.2 87 +11  1014.1  745  287           
00 27.05.17 330 (СЗ) 10 км    3/0 средняя 
[Ac und]
+9.4 +6.8 84 +9  1015.2  0.9  746  289           
09 27.05.17 350 (С) 10 км    8/8 1000 м 
[Cu med, cong]
+18 +8.2 53 +19  1017.6  0.6  748  281           
12 27.05.17 010 (С) 10 км    8/8 1000 м 
[Cu med, cong]
+17.8 +7.3 50 +18  1017.8  0.2  748  282           
15 27.05.17 320 (СЗ) 10 км    10/6 600 м верхняя 
[Sc|Ci fib]
+19.3 +3.4 35 +20  1017.5  -0.2  748  281           
18 27.05.17 320 (СЗ) 10 км    10/0 верхняя 
[Ci fib]
+16.1 +7.3 56 +17  1018.5  0.7  749  284    +20.4       
21 27.05.17 220 (ЮЗ) 10 км    3/3 600 м 
[Sc]
+11.2 +7.4 77 +11  1019.3  0.5  749  289           
09 28.05.17 280 (З) 5-10{10}  10 км    8/4 1000 м верхняя 
[Cu med, cong|Ci fib]
+20.2 +10.3 53 +22  1017.6  -0.5  748  279           
15 28.05.17 270 (З) 5{10}  10 км    8/4 1000 м средняя, верхняя 
[Cu Sc|Ac trans|Ci fib]
+22.5 +10.7 47 +25  1017.6  -0.5  749  277           
18 28.05.17 190 (Ю) 10 км    8/0 верхняя 
[Ci fib]
+19.9 +11.4 58 +24  1017.4  -0.3  748  279    +22.8       
21 28.05.17 180 (Ю) 10 км    1/0 верхняя 
[Ci fib]
+15.6 +11.3 76 +19  1017.6  -0.2  748  283           
00 29.05.17 200 (Ю) 10 км    ясно 
+15.3 +10.7 74 +18  1016  -1.5  747  283           
09 29.05.17 230 (ЮЗ) 9-10{13}  10 км    9/8 1000 м средняя 
[Cu med, cong|Ac cast]
+23.4 +12.4 50 +28  1010.6  -2.3  743  274           
12 29.05.17 250 (З) 8-10{14}  10 км    9/9 600 м кучево-дожд. 
[Cb calv]
+24.4 +10.4 41 +26  1008.8  -1.7  742  273           
15 29.05.17 220 (ЮЗ) 6-10{13}  10 км    9/8 600 м кучево-дожд., средняя 
[Cb calv|Ac und]
+22.3 +11.4 50 +26  1006.9  -2.1  741  274           
18 29.05.17 280 (З) 6-11{12}  10 км  слаб. ливневой дождь  9/9 600 м кучево-дожд. 
[Cb cap]
+19.5 +12.4 64 +25  1007.4  0.4  741  276    +25  0.0     
Время (UTC), дата Ветер
(°,м/с) 
Видим.   Явления Облачность Т
(°С)
Тd
(°С)
f(%) Тe
(°С)
Pmin
(гПа)
dP
(гПа)
Po
(мм)
O2
(г/м3)
Тmin Tmax R s Состояние
почвы

Для получения пояснительной информации подведите курсор к названию столбца.

ПОГОДА в Славгороде - архив

Всё, что Вы хотите узнать о погоде в Славгороде - удобно и подробно!

Выберите нужную дату (начиная с 1 января 2015* года) и нажмите кнопку "Найти".
Будут отображены архивные сводки погоды по пункту Славгород, начиная с указанной даты.


Отображать данные в формате CSV (для использования в таблицах Excel)


Внимание! Наш архив погоды предназначен исключительно для личного некоммерческого использования в познавательных целях. Если Вам необходимы официальные справки о состоянии погоды (для производственных, юридических, коммерческих и т.п. целей), обращайтесь в органы Росгидромета.

*Примечание: данная дата относится к архиву по метеостанциям СССР (Россия, СНГ, Балтия).
Архив по метеостанциям Зарубежной Европы и Азии (кроме Китая) хранится 10 дней, по другим регионам земного шара (Китай, Африка, Америка, Австралия, Океания) - 1 день.

Славгород - район местоположения метеостанции


Название, широта, долгота, высота метеостанции:
Славгород 53.4°ш. 31°д. 170 м над ур. моря [Беларусь]

Дополнительная информация

В oтличие oт бoльшинства пoгoдных сайтoв мы публикуем пoдрoбную метеoинфoрмацию в детальнoм прoфессиoнальнoм фoрмате.

Характеристики температуры и влажнoсти вoздуха измеряются на высoте 2 м в тени вдали oт зданий и деревьев.
Скoрoсть ветра измеряется на высoте 10 м (на урoвне рoста челoвека скoрoсть ветра ниже в 1.5-2 раза). Если метеoстанция нахoдится в гoрoде или в лесу, тo скoрoсть ветра занижена на 2-4 м/с пo сравнению с oткрытым местoм. Скoрoсть ветра над акватoриями крупных рек и oзёр, а также на вершинах хoлмoв на 2-5 м/с выше, чем в oбычных услoвиях.
Атмoсфернoе давление в разных тoчках местнoсти мoжет значительнo oтличаться oт давления на метеoстанции, в зависимoсти oт услoвий рельефа (при пoдъёме на 10 м давление пoнижается примернo на 1 мм рт.ст.).